User: anonymous   Login
Location: Fauquembergues
(50.6005°N, 2.0987°E)
Time: 23:11:56
(UTC+00:00)
Language:

Cosmos 1656 - Orbit

View from above orbital plane
View from above orbital plane
View from above satellite
View from above satellite

Ground track
Ground track

The orbit data is extracted from the following two-line orbital elements,

1 15755U 85042A   20263.40470371 -.00000013 +00000-0 +16031-4 0  9991
2 15755 071.1142 015.5377 0035467 358.8615 001.2424 14.20453855829436
Epoch (UTC): 19 September 2020 09:42:46
Eccentricity: 0.0035467
inclination: 71.1142°
perigee height: 798 km
apogee height: 849 km
right ascension of ascending node: 15.5377°
argument of perigee: 358.8615°
revolutions per day: 14.20453855
mean anomaly at epoch: 1.2424°
orbit number at epoch: 82943

The dashed part of the orbit path shows where the satellite is in the earth's shadow,  

DLR